Ionia, MI

3:01 AM EST on November 23, 2017 (GMT -0500)
Ionia

Weather History for KY70 - March, 2013

Change the Weather History Date:

Friday, March 8, 2013

  Actual Average (KGRR) Record (KGRR)
Temperature  
Mean Temperature 29 °F -  
Max Temperature 39 °F 38 °F 78 °F (2000)
Min Temperature 19 °F 21 °F -13 °F (1943)
Degree Days  
Heating Degree Days 36    
Moisture  
Dew Point 21 °F    
Average Humidity 72    
Maximum Humidity 93    
Minimum Humidity 52    
Precipitation  
Precipitation 0.00 in - - ()
Sea Level Pressure  
Sea Level Pressure 30.43 in    
Wind  
Wind Speed 3 mph (East)    
Max Wind Speed 7 mph    
Max Gust Speed -    
Visibility 10 miles    
Events      
Averages and records for this station are not official NWS values.
T = Trace of Precipitation, MM = Missing Value Source: NWS Daily Summary

Daily Weather History Graph

Daily Weather History Graph

Search for Another Location

Airport or City:

Trip Planner

Search our weather history database for the weather conditions in past years. The results will help you decide how hot, cold, wet, or windy it might be!

Date:

Astronomy

Mar. 08, 2013 Rise Set
Actual Time 7:03 AM EST 6:38 PM EST
Civil Twilight 6:35 AM EST 7:06 PM EST
Nautical Twilight 6:02 AM EST 7:39 PM EST
Astronomical Twilight 5:29 AM EST 8:12 PM EST
Moon 4:51 AM EST (3/8) 3:29 PM EST (3/8)
Length of Visible Light 12h 31m
Length of Day
11h 34m
Waning Crescent, 12% of the Moon is Illuminated
Mar 8
Waning Crescent
Mar 11
New
Mar 19
First Quarter
Mar 27
Full
Apr 3
Last Quarter

Hourly Weather History & Observations

Time (EST) Temp. Windchill Dew Point Humidity Pressure Visibility Wind Dir Wind Speed Gust Speed Precip Events Conditions
12:15 AM 26.6 °F 21.2 °F 19.4 °F 74% 30.38 in 10.0 mi NNE 4.6 mph - N/A   Clear
12:40 AM 26.6 °F 21.2 °F 19.4 °F 74% 30.39 in 10.0 mi NE 4.6 mph - N/A   Clear
12:55 AM 26.6 °F 20.0 °F 19.4 °F 74% 30.40 in 10.0 mi NE 5.8 mph - N/A   Clear
2:07 AM 24.8 °F 19.1 °F 17.6 °F 74% 30.41 in 10.0 mi NE 4.6 mph - N/A   Clear
2:27 AM 24.8 °F 19.1 °F 17.6 °F 74% 30.41 in 10.0 mi NE 4.6 mph - N/A   Clear
2:35 AM 24.8 °F 19.1 °F 17.6 °F 74% 30.41 in 10.0 mi NE 4.6 mph - N/A   Clear
2:56 AM 24.8 °F 19.1 °F 17.6 °F 74% 30.42 in 10.0 mi NE 4.6 mph - N/A   Clear
3:15 AM 23.0 °F 18.4 °F 17.6 °F 80% 30.42 in 10.0 mi NE 3.5 mph - N/A   Clear
3:35 AM 23.0 °F 17.0 °F 17.6 °F 80% 30.42 in 10.0 mi NE 4.6 mph - N/A   Clear
3:55 AM 23.0 °F 17.0 °F 17.6 °F 80% 30.42 in 10.0 mi NE 4.6 mph - N/A   Clear
4:15 AM 23.0 °F - 17.6 °F 80% 30.42 in 10.0 mi Calm Calm - N/A   Clear
4:35 AM 23.0 °F - 17.6 °F 80% 30.42 in 10.0 mi Calm Calm - N/A   Clear
4:55 AM 23.0 °F 18.4 °F 17.6 °F 80% 30.42 in 10.0 mi NE 3.5 mph - N/A   Clear
5:15 AM 23.0 °F - 17.6 °F 80% 30.44 in 10.0 mi Calm Calm - N/A   Clear
5:35 AM 21.2 °F - 17.6 °F 86% 30.44 in 10.0 mi Calm Calm - N/A   Clear
5:55 AM 21.2 °F - 17.6 °F 86% 30.44 in 10.0 mi Calm Calm - N/A   Clear
6:15 AM 19.4 °F 14.3 °F 15.8 °F 86% 30.44 in 10.0 mi ENE 3.5 mph - N/A   Clear
6:35 AM 19.4 °F - 15.8 °F 86% 30.45 in 10.0 mi Calm Calm - N/A   Clear
7:04 AM 19.4 °F - 15.8 °F 86% 30.46 in 10.0 mi Calm Calm - N/A   Clear
7:15 AM 19.4 °F - 15.8 °F 86% 30.47 in 10.0 mi Calm Calm - N/A   Clear
7:35 AM 19.4 °F - 17.6 °F 93% 30.47 in 10.0 mi Calm Calm - N/A   Clear
7:55 AM 21.2 °F - 17.6 °F 86% 30.48 in 10.0 mi Calm Calm - N/A   Clear
8:16 AM 23.0 °F - 19.4 °F 86% 30.48 in 10.0 mi Calm Calm - N/A   Clear
8:35 AM 24.8 °F - 19.4 °F 80% 30.48 in 10.0 mi Calm Calm - N/A   Clear
8:56 AM 24.8 °F - 19.4 °F 80% 30.48 in 10.0 mi Calm Calm - N/A   Clear
9:19 AM 26.6 °F 22.6 °F 21.2 °F 80% 30.48 in 10.0 mi East 3.5 mph - N/A   Clear
9:35 AM 26.6 °F 22.6 °F 19.4 °F 74% 30.48 in 10.0 mi East 3.5 mph - N/A   Clear
9:56 AM 28.4 °F - 21.2 °F 74% 30.48 in 10.0 mi Calm Calm - N/A   Clear
10:16 AM 28.4 °F 24.6 °F 21.2 °F 74% 30.48 in 10.0 mi SE 3.5 mph - N/A   Clear
10:36 AM - - - N/A% - - North - - N/A   Unknown
10:56 AM 30.2 °F 26.7 °F 23.0 °F 75% 30.48 in 10.0 mi SE 3.5 mph - N/A   Clear
11:16 AM 32.0 °F - 23.0 °F 69% 30.49 in 10.0 mi Calm Calm - N/A   Clear
11:56 AM 33.8 °F - 23.0 °F 65% 30.48 in 10.0 mi Calm Calm - N/A   Clear
12:16 PM 33.8 °F - 23.0 °F 65% 30.47 in 10.0 mi Calm Calm - N/A   Clear
12:36 PM 35.6 °F - 23.0 °F 60% 30.47 in 10.0 mi Calm Calm - N/A   Clear
12:56 PM 35.6 °F - 23.0 °F 60% 30.46 in 10.0 mi Calm Calm - N/A   Clear
1:15 PM 35.6 °F - 23.0 °F 60% 30.46 in 10.0 mi Calm Calm - N/A   Clear
1:36 PM 37.4 °F - 23.0 °F 56% 30.44 in 10.0 mi Calm Calm - N/A   Clear
1:56 PM - - - N/A% - - North - - N/A   Unknown
2:16 PM 37.4 °F 33.8 °F 23.0 °F 56% 30.43 in 10.0 mi SW 4.6 mph - N/A   Clear
2:36 PM - - - N/A% - - North - - N/A   Unknown
2:56 PM 37.4 °F - 23.0 °F 56% - 10.0 mi Calm Calm - N/A   Clear
3:18 PM 39.2 °F - 23.0 °F 52% 30.42 in 10.0 mi Calm Calm - N/A   Clear
3:35 PM 39.2 °F - 23.0 °F 52% 30.42 in 10.0 mi Calm Calm - N/A   Clear
3:56 PM 39.2 °F - 23.0 °F 52% 30.42 in 10.0 mi Calm Calm - N/A   Clear
4:18 PM 39.2 °F 37.0 °F 24.8 °F 56% 30.41 in 10.0 mi SSE 3.5 mph - N/A   Clear
4:34 PM 39.2 °F 35.0 °F 24.8 °F 56% 30.40 in 10.0 mi SSE 5.8 mph - N/A   Clear
4:56 PM 39.2 °F 37.0 °F 24.8 °F 56% 30.40 in 10.0 mi ESE 3.5 mph - N/A   Clear
5:17 PM 39.2 °F 35.9 °F 23.0 °F 52% 30.40 in 10.0 mi SE 4.6 mph - N/A   Clear
5:35 PM 39.2 °F 37.0 °F 24.8 °F 56% 30.40 in 10.0 mi SE 3.5 mph - N/A   Clear
5:55 PM 37.4 °F 34.9 °F 24.8 °F 60% 30.40 in 10.0 mi SE 3.5 mph - N/A   Clear
6:15 PM 37.4 °F - 24.8 °F 60% 30.40 in 10.0 mi Calm Calm - N/A   Clear
6:35 PM 37.4 °F 34.9 °F 23.0 °F 56% 30.38 in 10.0 mi East 3.5 mph - N/A   Clear
7:00 PM 35.6 °F - 24.8 °F 65% 30.38 in 10.0 mi Calm Calm - N/A   Clear
7:56 PM 33.8 °F 30.8 °F 24.8 °F 70% 30.40 in 10.0 mi ESE 3.5 mph - N/A   Clear
8:16 PM 32.0 °F 27.5 °F 24.8 °F 75% 30.40 in 10.0 mi ESE 4.6 mph - N/A   Clear
8:36 PM 32.0 °F 27.5 °F 24.8 °F 75% 30.40 in 10.0 mi ESE 4.6 mph - N/A   Clear
8:56 PM 32.0 °F 27.5 °F 24.8 °F 75% 30.40 in 10.0 mi SE 4.6 mph - N/A   Clear
9:19 PM 32.0 °F 26.4 °F 24.8 °F 75% 30.40 in 10.0 mi SE 5.8 mph - N/A   Clear
9:36 PM 32.0 °F 26.4 °F 24.8 °F 75% 30.40 in 10.0 mi SE 5.8 mph - N/A   Clear
10:04 PM 30.2 °F 24.3 °F 24.8 °F 80% 30.40 in 10.0 mi SE 5.8 mph - N/A   Clear
10:16 PM 30.2 °F 25.4 °F 24.8 °F 80% 30.40 in 10.0 mi ESE 4.6 mph - N/A   Clear
10:35 PM 30.2 °F 24.3 °F 24.8 °F 80% 30.39 in 10.0 mi ESE 5.8 mph - N/A   Clear
10:56 PM 30.2 °F 24.3 °F 24.8 °F 80% 30.38 in 10.0 mi ESE 5.8 mph - N/A   Clear
11:16 PM 30.2 °F 24.3 °F 24.8 °F 80% 30.38 in 10.0 mi SE 5.8 mph - N/A   Clear
11:36 PM 30.2 °F 23.4 °F 24.8 °F 80% 30.37 in 10.0 mi SE 6.9 mph - N/A   Clear
11:56 PM 28.4 °F 23.3 °F 24.8 °F 86% 30.37 in 10.0 mi SE 4.6 mph - N/A   Clear